K8EMA-4 Weather Reports


Display with metric or nautical units.
time (UTC)temp
F
wind
direction
speed
MPH
gust
MPH
rain 1hr
in
rain 24hr
in
rain mn
in
humidity
%
barometer
mb
20260508205617 64 248 14.0 17.0 0.00 0.01 0.00 100
20260508205117 64 220 10.0 14.0 0.00 0.01 0.00 100
20260508204618 64 267 9.0 22.0 0.00 0.01 0.00 100
20260508204117 64 270 11.0 18.0 0.00 0.01 0.00 100
20260508203617 64 239 11.0 19.0 0.00 0.01 0.00 100
20260508203117 65 240 6.0 21.0 0.00 0.01 0.00 100
20260508202617 65 244 10.0 18.0 0.00 0.01 0.00 100
20260508202117 65 209 9.0 18.0 0.00 0.01 0.00 100
20260508201622 65 260 10.0 16.0 0.00 0.01 0.00 100
20260508201117 66 237 5.0 12.0 0.00 0.01 0.00 100
20260508200617 67 250 9.0 15.0 0.00 0.01 0.00 100
20260508200117 67 282 8.0 14.0 0.00 0.01 0.00 100
20260508195617 67 255 8.0 19.0 0.00 0.01 0.00 100
20260508195120 67 241 10.0 23.0 0.00 0.01 0.00 100
20260508194617 68 258 17.0 24.0 0.00 0.01 0.00 100
20260508194117 68 227 10.0 20.0 0.00 0.01 0.00 100
20260508193617 68 264 12.0 17.0 0.00 0.01 0.00 100
20260508193118 68 240 9.0 19.0 0.00 0.01 0.00 100
20260508192617 69 229 10.0 13.0 0.00 0.01 0.00 100
20260508192117 68 201 5.0 19.0 0.00 0.01 0.00 100
20260508191619 67 226 10.0 14.0 0.00 0.01 0.00 100
20260508191118 69 268 7.0 12.0 0.00 0.01 0.00 100
20260508190618 70 220 7.0 12.0 0.00 0.01 0.00 100
20260508190117 68 288 9.0 14.0 0.00 0.01 0.00 100
20260508185618 67 268 8.0 21.0 0.00 0.01 0.00 100
20260508185117 67 201 12.0 17.0 0.00 0.01 0.00 100
20260508184617 67 220 7.0 19.0 0.00 0.01 0.00 100
20260508184117 67 227 8.0 19.0 0.00 0.01 0.00 100
20260508183618 68 281 5.0 13.0 0.00 0.01 0.00 100
20260508183230 70 251 7.0 15.0 0.00 0.01 0.00 100
20260508183120 70 251 7.0 15.0 0.00 0.01 0.00 100
20260508182619 72 240 11.0 17.0 0.00 0.01 0.00 100
20260508182117 71 260 12.0 17.0 0.00 0.01 0.00 100
20260508181619 72 284 8.0 16.0 0.00 0.01 0.00 100
20260508181118 72 255 7.0 16.0 0.00 0.01 0.00 100
20260508180618 69 250 16.0 16.0 0.00 0.01 0.00 100
20260508180118 70 268 9.0 16.0 0.00 0.01 0.00 100
20260508175619 70 260 9.0 11.0 0.00 0.01 0.00 100
20260508175118 69 264 5.0 17.0 0.00 0.01 0.00 100
20260508174618 71 237 14.0 14.0 0.00 0.01 0.00 100
20260508174118 71 267 12.0 16.0 0.00 0.01 0.00 100
20260508173618 71 219 12.0 16.0 0.00 0.01 0.00 100
20260508173118 72 251 12.0 16.0 0.00 0.01 0.00 100
20260508172618 69 250 12.0 17.0 0.00 0.01 0.00 100
20260508172118 69 226 12.0 16.0 0.00 0.01 0.00 100
20260508171618 67 275 12.0 17.0 0.00 0.01 0.00 100
20260508171118 70 267 6.0 12.0 0.00 0.01 0.00 100
20260508170618 73 268 9.0 15.0 0.00 0.01 0.00 100
20260508170118 74 265 8.0 13.0 0.00 0.01 0.00 100
20260508165618 74 234 11.0 12.0 0.00 0.01 0.00 100
20260508164618 69 272 7.0 10.0 0.00 0.01 0.00 100
20260508164118 68 279 7.0 10.0 0.00 0.01 0.00 100
20260508163618 66 258 5.0 11.0 0.00 0.01 0.00 100
20260508163118 67 295 8.0 10.0 0.00 0.01 0.00 100
20260508162618 69 262 5.0 10.0 0.00 0.01 0.00 100
20260508162118 72 274 3.0 12.0 0.00 0.01 0.00 100
20260508161621 68 312 9.0 11.0 0.00 0.01 0.00 100
20260508161118 67 225 2.0 14.0 0.00 0.01 0.00 100
20260508160618 66 257 12.0 14.0 0.00 0.01 0.00 100
20260508160118 70 262 7.0 12.0 0.00 0.01 0.00 100
20260508155618 68 262 9.0 10.0 0.00 0.01 0.00 100
20260508155208 65 292 6.0 11.0 0.00 0.01 0.00 100
20260508155118 65 292 6.0 11.0 0.00 0.01 0.00 100
20260508154657 65 254 6.0 11.0 0.00 0.01 0.00 100
20260508154618 65 254 6.0 11.0 0.00 0.01 0.00 100
20260508154118 67 285 7.0 10.0 0.00 0.01 0.00 100
20260508153620 67 282 6.0 11.0 0.00 0.01 0.00 100
20260508153118 66 267 8.0 11.0 0.00 0.01 0.00 100
20260508152618 66 268 6.0 10.0 0.00 0.01 0.00 100
20260508152118 64 254 7.0 10.0 0.00 0.01 0.00 100
20260508151620 63 323 3.0 13.0 0.00 0.01 0.00 100
20260508151118 65 286 13.0 15.0 0.00 0.01 0.00 100
20260508150618 63 281 9.0 14.0 0.00 0.01 0.00 100
20260508150118 61 258 9.0 13.0 0.00 0.01 0.00 100
20260508145618 62 267 11.0 11.0 0.00 0.01 0.00 100
20260508145118 62 246 5.0 9.0 0.00 0.01 0.00 100
20260508144621 60 288 3.0 9.0 0.00 0.01 0.00 100
20260508144118 59 272 4.0 8.0 0.00 0.01 0.00 100
20260508143618 57 270 5.0 10.0 0.00 0.01 0.00 100
20260508143118 57 191 1.0 10.0 0.00 0.01 0.00 100
20260508142618 56 225 10.0 11.0 0.00 0.01 0.00 100
20260508142118 55 268 5.0 9.0 0.00 0.01 0.00 100
20260508141623 54 270 5.0 11.0 0.00 0.01 0.00 100
20260508141118 55 261 4.0 8.0 0.00 0.01 0.00 100
20260508140618 54 274 3.0 8.0 0.00 0.01 0.00 100
20260508140118 53 270 7.0 9.0 0.00 0.01 0.00 100
20260508135618 53 241 5.0 10.0 0.00 0.01 0.00 100
20260508135118 53 289 3.0 9.0 0.00 0.01 0.00 100
20260508134618 53 226 5.0 8.0 0.00 0.01 0.00 100
20260508134119 52 243 7.0 9.0 0.00 0.01 0.00 100
20260508133619 52 285 2.0 8.0 0.00 0.01 0.00 100
20260508133118 51 220 5.0 9.0 0.00 0.01 0.00 100
20260508132618 51 251 4.0 8.0 0.00 0.01 0.00 100
20260508132118 51 261 3.0 7.0 0.00 0.01 0.00 100
20260508131618 50 209 5.0 9.0 0.00 0.01 0.00 100
20260508131118 50 267 4.0 7.0 0.00 0.01 0.00 100
20260508130618 50 262 4.0 8.0 0.00 0.01 0.00 100
20260508130118 50 243 4.0 7.0 0.00 0.01 0.00 100
20260508125618 50 244 6.0 8.0 0.00 0.01 0.00 100
20260508125118 50 257 3.0 7.0 0.00 0.01 0.00 100
20260508124618 50 257 2.0 8.0 0.00 0.01 0.00 100
20260508124118 49 264 4.0 7.0 0.00 0.01 0.00 100
20260508123618 49 223 6.0 9.0 0.00 0.01 0.00 100
20260508123118 49 230 5.0 10.0 0.00 0.01 0.00 100
20260508122619 49 208 6.0 8.0 0.00 0.01 0.00 100
20260508122118 49 236 4.0 7.0 0.00 0.01 0.00 100
20260508121619 49 286 3.0 7.0 0.00 0.01 0.00 100
20260508121118 49 241 7.0 8.0 0.00 0.01 0.00 100
20260508120618 49 239 7.0 9.0 0.00 0.01 0.00 100
20260508120118 49 262 7.0 8.0 0.00 0.01 0.00 100
20260508115620 49 241 7.0 10.0 0.00 0.01 0.00 100
20260508115118 49 233 5.0 7.0 0.00 0.01 0.00 100
20260508114618 49 227 5.0 7.0 0.00 0.01 0.00 100
20260508114118 49 248 4.0 8.0 0.00 0.01 0.00 100
20260508113618 48 237 4.0 7.0 0.00 0.01 0.00 100
20260508113118 47 195 2.0 6.0 0.00 0.01 0.00 100
20260508112618 47 226 3.0 7.0 0.00 0.01 0.00 100
20260508112118 47 227 3.0 5.0 0.00 0.01 0.00 100
20260508111618 47 236 2.0 6.0 0.00 0.01 0.00 100
20260508111118 47 253 3.0 6.0 0.00 0.01 0.00 100
20260508110618 46 233 2.0 5.0 0.00 0.01 0.00 100
20260508110230 46 248 3.0 5.0 0.00 0.01 0.00 100
20260508110118 46 248 3.0 5.0 0.00 0.01 0.00 100
20260508105618 46 220 2.0 5.0 0.00 0.01 0.00 100
20260508105118 46 215 1.0 4.0 0.00 0.01 0.00 100
20260508104618 45 230 0.0 4.0 0.00 0.01 0.00 100
20260508104118 44 265 4.0 4.0 0.00 0.01 0.00 100
20260508103618 44 194 0.0 0.0 0.00 0.01 0.00 100
20260508103118 44 194 0.0 0.0 0.00 0.01 0.00 100
20260508102618 43 194 0.0 2.0 0.00 0.01 0.00 100
20260508102118 43 234 0.0 3.0 0.00 0.01 0.00 100
20260508101619 43 278 0.0 2.0 0.00 0.01 0.00 100
20260508101118 43 261 1.0 3.0 0.00 0.01 0.00 100
20260508100618 44 233 2.0 5.0 0.00 0.01 0.00 100
20260508100119 44 265 3.0 4.0 0.00 0.01 0.00 100
20260508095618 44 260 2.0 6.0 0.00 0.01 0.00 100
20260508095118 44 258 3.0 4.0 0.00 0.01 0.00 100
20260508094618 44 217 2.0 3.0 0.00 0.01 0.00 100
20260508094118 43 234 2.0 2.0 0.00 0.01 0.00 100
20260508093618 44 275 0.0 5.0 0.00 0.01 0.00 100
20260508093118 44 255 0.0 4.0 0.00 0.01 0.00 100
20260508092618 44 227 0.0 3.0 0.00 0.01 0.00 100
20260508092118 44 209 0.0 4.0 0.00 0.01 0.00 100
20260508091618 44 244 1.0 3.0 0.00 0.01 0.00 100
20260508091118 44 277 0.0 2.0 0.00 0.01 0.00 100
20260508090618 44 170 0.0 5.0 0.00 0.01 0.00 100
20260508090118 44 232 1.0 5.0 0.00 0.01 0.00 100
20260508085618 44 279 5.0 5.0 0.00 0.01 0.00 100
20260508085118 44 293 0.0 3.0 0.00 0.01 0.00 100
20260508084619 44 229 0.0 3.0 0.00 0.01 0.00 100
20260508084118 45 282 2.0 5.0 0.00 0.01 0.00 100
20260508083618 45 257 2.0 6.0 0.00 0.01 0.00 100
20260508083118 45 213 3.0 5.0 0.00 0.01 0.00 100
20260508082618 45 229 3.0 6.0 0.00 0.01 0.00 100
20260508082119 45 223 2.0 6.0 0.00 0.01 0.00 100
20260508081620 45 216 2.0 4.0 0.00 0.01 0.00 100
20260508081119 45 253 1.0 5.0 0.00 0.01 0.00 100
20260508080619 45 254 2.0 5.0 0.00 0.01 0.00 100
20260508080120 45 275 1.0 2.0 0.00 0.01 0.00 100
20260508075619 45 225 1.0 5.0 0.00 0.01 0.00 100
20260508075119 45 206 2.0 4.0 0.00 0.01 0.00 100
20260508074619 46 261 2.0 5.0 0.00 0.01 0.00 100
20260508074119 46 212 3.0 6.0 0.00 0.01 0.00 100
20260508073619 46 262 3.0 6.0 0.00 0.01 0.00 100
20260508073119 46 239 3.0 5.0 0.00 0.01 0.00 100
20260508072619 46 258 1.0 4.0 0.00 0.01 0.00 100
20260508072119 46 264 3.0 5.0 0.00 0.01 0.00 100
20260508071619 46 240 3.0 4.0 0.00 0.01 0.00 100
20260508071119 47 251 2.0 5.0 0.00 0.01 0.00 100
20260508070619 47 272 3.0 6.0 0.00 0.01 0.00 100
20260508070119 47 289 2.0 6.0 0.00 0.01 0.00 100
20260508065619 47 264 3.0 6.0 0.00 0.01 0.00 100
20260508065119 47 237 4.0 5.0 0.00 0.01 0.00 100
20260508064619 48 262 3.0 7.0 0.00 0.01 0.00 100
20260508064119 48 243 3.0 8.0 0.00 0.01 0.00 100
20260508063619 48 302 1.0 8.0 0.00 0.01 0.00 100
20260508063121 48 260 4.0 7.0 0.00 0.01 0.00 100
20260508062619 48 264 2.0 8.0 0.00 0.01 0.00 100
20260508062119 48 230 7.0 7.0 0.00 0.01 0.00 100
20260508061619 49 203 6.0 8.0 0.00 0.01 0.00 100
20260508061119 49 219 4.0 6.0 0.00 0.01 0.00 100
20260508060619 49 237 3.0 9.0 0.00 0.01 0.00 100
20260508060119 50 264 5.0 7.0 0.00 0.01 0.00 100
20260508055619 50 254 4.0 8.0 0.00 0.01 0.00 100
20260508055122 50 316 2.0 7.0 0.00 0.01 0.00 100
20260508054620 50 243 6.0 8.0 0.00 0.01 0.00 100
20260508054119 51 281 6.0 10.0 0.00 0.01 0.00 100
20260508053622 51 285 8.0 11.0 0.00 0.01 0.00 100
20260508053119 50 209 4.0 8.0 0.00 0.01 0.00 100
20260508052619 51 246 4.0 7.0 0.00 0.01 0.00 100
20260508052119 51 264 3.0 11.0 0.00 0.01 0.00 100
20260508051619 51 254 5.0 12.0 0.00 0.01 0.00 100
20260508051119 51 274 8.0 17.0 0.00 0.01 0.00 100
20260508050619 50 329 5.0 10.0 0.00 0.01 0.00 100
20260508050119 50 355 2.0 6.0 0.00 0.01 0.00 100
20260508045619 50 247 2.0 5.0 0.00 0.01 0.00 100
20260508045119 50 216 2.0 7.0 0.00 0.01 0.00 100
20260508044622 50 212 7.0 7.0 0.00 0.01 0.00 100
20260508044119 50 241 1.0 7.0 0.00 0.01 0.00 100
20260508043619 50 244 4.0 4.0 0.00 0.01 0.00 100
20260508043119 49 201 2.0 3.0 0.00 0.01 0.00 100
20260508042619 49 194 0.0 0.0 0.00 0.01 0.00 100
20260508042119 49 194 0.0 0.0 0.00 0.01 0.00 100
20260508041619 49 194 0.0 0.0 0.00 0.01 0.00 100
20260508041120 49 194 0.0 0.0 0.00 0.01 0.00 100
20260508040619 49 194 0.0 4.0 0.00 0.01 0.00 100
20260508040119 49 212 1.0 3.0 0.00 0.01 0.00 100
20260508035619 49 233 0.0 0.0 0.00 0.01 0.01 100
20260508035119 48 233 0.0 2.0 0.00 0.01 0.01 100
20260508034619 48 220 0.0 0.0 0.00 0.01 0.01 100
20260508034119 48 208 0.0 0.0 0.00 0.01 0.01 100
20260508033619 48 208 0.0 0.0 0.01 0.01 0.01 100
20260508033119 48 208 0.0 2.0 0.01 0.01 0.01 100
20260508032619 49 206 1.0 2.0 0.01 0.01 0.01 100
20260508032119 49 248 0.0 0.0 0.01 0.01 0.01 100
20260508031619 49 248 0.0 0.0 0.01 0.01 0.01 100
20260508031119 49 248 0.0 0.0 0.01 0.01 0.01 100
20260508030619 49 248 0.0 3.0 0.01 0.01 0.01 100
20260508030119 49 275 0.0 2.0 0.01 0.01 0.01 100
20260508025619 49 236 0.0 2.0 0.01 0.01 0.01 100
20260508025120 49 237 0.0 4.0 0.01 0.01 0.01 100
20260508024619 48 272 0.0 2.0 0.01 0.01 0.01 100
20260508024119 50 177 0.0 5.0 0.01 0.01 0.01 100
20260508023623 50 265 1.0 5.0 0.00 0.00 0.00 100
20260508023119 50 246 0.0 0.0 0.00 0.00 0.00 100
20260508022619 51 246 0.0 4.0 0.00 0.00 0.00 100
20260508022119 51 286 2.0 4.0 0.00 0.00 0.00 100
20260508021620 51 247 0.0 4.0 0.00 0.00 0.00 100
20260508021119 51 285 3.0 6.0 0.00 0.00 0.00 100
20260508020619 51 270 3.0 6.0 0.00 0.00 0.00 100
20260508020119 50 264 5.0 5.0 0.00 0.00 0.00 100
20260508015619 51 247 0.0 0.0 0.00 0.00 0.00 100
20260508015119 51 247 0.0 4.0 0.00 0.00 0.00 100
20260508014619 51 260 2.0 6.0 0.00 0.00 0.00 100
20260508014119 51 251 1.0 6.0 0.00 0.00 0.00 100
20260508013619 51 289 3.0 5.0 0.00 0.00 0.00 100
20260508013119 51 293 3.0 6.0 0.00 0.00 0.00 100
20260508012619 52 254 6.0 8.0 0.00 0.00 0.00 100
20260508012119 52 281 3.0 6.0 0.00 0.00 0.00 100
20260508011619 52 246 3.0 7.0 0.00 0.00 0.00 100
20260508011119 52 285 2.0 8.0 0.00 0.00 0.00 100
20260508010622 52 251 5.0 7.0 0.00 0.00 0.00 100
20260508010119 52 274 2.0 6.0 0.00 0.00 0.00 100
20260508005619 52 327 4.0 5.0 0.00 0.00 0.00 100
20260508005119 52 260 1.0 5.0 0.00 0.00 0.00 100
20260508004619 52 272 4.0 7.0 0.00 0.00 0.00 100
20260508004119 52 293 6.0 8.0 0.00 0.00 0.00 100
20260508003619 52 291 7.0 8.0 0.00 0.00 0.00 100
20260508003119 52 303 7.0 8.0 0.00 0.00 0.00 100
20260508002619 53 296 8.0 8.0 0.00 0.00 0.00 100
20260508002119 53 322 5.0 12.0 0.00 0.00 0.00 100
20260508001621 53 288 6.0 12.0 0.00 0.00 0.00 100
20260508001120 54 11 1.0 14.0 0.00 0.00 0.00 100
20260508000619 54 267 9.0 14.0 0.00 0.00 0.00 100
20260508000119 54 302 13.0 17.0 0.00 0.00 0.00 100
20260507235619 55 288 15.0 17.0 0.00 0.00 0.00 100
20260507235120 55 296 9.0 9.0 0.00 0.00 0.00 100
20260507234620 55 255 4.0 7.0 0.00 0.00 0.00 100
20260507234119 55 272 5.0 10.0 0.00 0.00 0.00 100
20260507233622 56 267 6.0 9.0 0.00 0.00 0.00 100
20260507233119 56 265 4.0 9.0 0.00 0.00 0.00 100
20260507232619 56 299 8.0 9.0 0.00 0.00 0.00 100
20260507232119 57 279 6.0 10.0 0.00 0.00 0.00 100
20260507231619 58 292 6.0 7.0 0.00 0.00 0.00 100
20260507231119 58 286 6.0 10.0 0.00 0.00 0.00 100
20260507230619 59 277 8.0 11.0 0.00 0.00 0.00 100
20260507230119 61 257 3.0 9.0 0.00 0.00 0.00 100
20260507225619 63 282 6.0 7.0 0.00 0.00 0.00 100
20260507225119 62 296 5.0 10.0 0.00 0.00 0.00 100
20260507224619 63 279 7.0 8.0 0.00 0.00 0.00 100
20260507224119 64 275 6.0 9.0 0.00 0.00 0.00 100
20260507223619 63 230 5.0 8.0 0.00 0.00 0.00 100
20260507223119 61 239 1.0 8.0 0.00 0.00 0.00 100
20260507222623 61 274 4.0 8.0 0.00 0.00 0.00 100
20260507222119 60 265 2.0 8.0 0.00 0.00 0.00 100
20260507221620 62 310 6.0 10.0 0.00 0.00 0.00 100
20260507221119 66 288 4.0 7.0 0.00 0.00 0.00 100
20260507220619 63 268 4.0 9.0 0.00 0.00 0.00 100
20260507220120 62 323 6.0 8.0 0.00 0.00 0.00 100
20260507215619 58 284 5.0 13.0 0.00 0.00 0.00 100
20260507215120 60 305 6.0 13.0 0.00 0.00 0.00 100
20260507214619 68 281 8.0 9.0 0.00 0.00 0.00 100
20260507214120 68 345 2.0 8.0 0.00 0.00 0.00 100
20260507213619 66 347 4.0 7.0 0.00 0.00 0.00 100
20260507213120 63 262 3.0 8.0 0.00 0.00 0.00 100
20260507212623 65 244 0.0 10.0 0.00 0.00 0.00 100
20260507212120 61 285 3.0 10.0 0.00 0.00 0.00 100
20260507211620 60 341 6.0 12.0 0.00 0.00 0.00 100
20260507211122 60 326 9.0 14.0 0.00 0.00 0.00 100
20260507210620 64 307 6.0 11.0 0.00 0.00 0.00 100
20260507210120 64 244 10.0 12.0 0.00 0.00 0.00 100